{"data":{"norad_id":62143,"intl_designator":"2024-224E","name":"STARLINK-32485","alt_names":[],"object_type":"PAYLOAD","status":"ACTIVE","operator":null,"country":"US","launch_date":"2024-11-30","launch_site_code":"AFETR","launch_vehicle":null,"mission":null,"orbit_class":"UNKNOWN","rcs_meters":null,"size_class":null,"mass_kg":null,"dimensions":null,"purposes":["comms"],"wikipedia_slug":null,"has_3d_model":false,"image_url":null,"decayed_at":null,"tle_current":{"epoch":"2026-09-21T03:10:07.188096Z","epoch_age_seconds":127727,"freshness":"FRESH","line1":"1 62143U 24224E   26264.13202764  .00008741  00000+0  32689-3 0  9995","line2":"2 62143  42.9960 137.5299 0001459 289.9320  70.1374 15.27569321101900","mean_motion":15.27569321,"eccentricity":0.0001459,"inclination_deg":42.996,"raan_deg":137.5299,"arg_perigee_deg":289.932,"mean_anomaly_deg":70.1374,"bstar":0.00032689,"rev_number":10190,"period_min":94.267407717859,"perigee_km":482.08002127684,"apogee_km":484.08212471054,"semimajor_km":6861.2180729937,"source":"CELESTRAK","updated_at":"2026-09-22T09:00:49.529778Z"}}}